Weather History for Somerville, NJ

Change the Weather History Date:

Saturday, January 7, 2012

  Actual Average Record
Temperature  
Mean Temperature 44 °F -  
Max Temperature 63 °F 36 °F 64 °F (2008)
Min Temperature 24 °F 19 °F 1 °F (2014)
Degree Days  
Heating Degree Days 22    
Moisture  
Dew Point 28 °F    
Average Humidity 60    
Maximum Humidity 88    
Minimum Humidity 34    
Precipitation  
Precipitation 0.00 in - - ()
Sea Level Pressure  
Sea Level Pressure 29.81 in    
Wind  
Wind Speed 1 mph (West)    
Max Wind Speed 10 mph    
Max Gust Speed 20 mph    
Visibility 10 miles    
Events      
Averages and records for this station are not official NWS values.
T = Trace of Precipitation, MM = Missing Value Source: NWS Daily Summary

Daily Weather History Graph

Daily Weather History Graph

Search for Another Location

Airport:

Trip Planner

Search our weather history database for the weather conditions in past years. The results will help you decide how hot, cold, wet, or windy it might be!

Date:

Astronomy

Jan. 07, 2012 Rise Set
Actual Time 7:22 AM EST 4:47 PM EST
Civil Twilight 6:51 AM EST 5:17 PM EST
Nautical Twilight 6:17 AM EST 5:51 PM EST
Astronomical Twilight 5:44 AM EST 6:25 PM EST
Moon 3:29 PM EST (1/7) 5:52 AM EST (1/7)
Length of Visible Light 10h 25m
Length of Day
9h 24m
Waxing Gibbous, 97% of the Moon is Illuminated
Jan 7
Waxing Gibbous
Jan 9
Full
Jan 16
Last Quarter
Jan 23
New
Jan 30
First Quarter

Hourly Weather History & Observations

Time (EST) Temp. Dew Point Humidity Pressure Visibility Wind Dir Wind Speed Gust Speed Precip Events Conditions
12:53 AM 27.0 °F 23.0 °F 85% 29.78 in 10.0 mi Calm Calm - N/A   Clear
1:53 AM 27.0 °F 23.0 °F 85% 29.78 in 10.0 mi Calm Calm - N/A   Clear
2:53 AM 26.1 °F 21.9 °F 84% 29.78 in 10.0 mi Calm Calm - N/A   Clear
3:53 AM 25.0 °F 21.9 °F 88% 29.77 in 10.0 mi Calm Calm - N/A   Clear
4:53 AM 26.1 °F 21.9 °F 84% 29.76 in 10.0 mi Calm Calm - N/A   Clear
5:53 AM 24.8 °F 21.2 °F 86% 29.77 in 10.0 mi Calm Calm - N/A   Clear
6:53 AM 24.1 °F 21.0 °F 88% 29.78 in 10.0 mi Calm Calm - N/A   Clear
7:53 AM 24.1 °F 21.0 °F 88% 29.79 in 10.0 mi Calm Calm - N/A   Clear
8:53 AM 30.9 °F 26.1 °F 82% 29.81 in 10.0 mi Calm Calm - N/A   Clear
9:53 AM 39.9 °F 28.9 °F 65% 29.81 in 10.0 mi Calm Calm - N/A   Clear
10:53 AM 50.0 °F 30.9 °F 48% 29.78 in 10.0 mi Calm Calm - N/A   Clear
11:53 AM 57.0 °F 30.9 °F 37% 29.75 in 10.0 mi South 4.6 mph - N/A   Clear
12:53 PM 62.1 °F 33.1 °F 34% 29.73 in 10.0 mi Variable 5.8 mph 19.6 mph N/A   Clear
1:53 PM 63.0 °F 35.1 °F 35% 29.71 in 10.0 mi Variable 4.6 mph - N/A   Clear
2:53 PM 62.6 °F 35.6 °F 37% 29.73 in 10.0 mi WSW 8.1 mph 18.4 mph N/A   Mostly Cloudy
3:53 PM 60.1 °F 36.0 °F 41% 29.76 in 10.0 mi Variable 3.5 mph - N/A   Clear
4:53 PM 57.9 °F 36.0 °F 44% 29.79 in 10.0 mi Variable 3.5 mph - N/A   Clear
5:53 PM 50.0 °F 36.0 °F 59% 29.83 in 10.0 mi Calm Calm - N/A   Clear
6:53 PM 53.1 °F 34.0 °F 48% 29.85 in 10.0 mi Variable 3.5 mph - N/A   Clear
7:53 PM 52.0 °F 30.0 °F 43% 29.88 in 10.0 mi Variable 3.5 mph - N/A   Clear
8:53 PM 50.0 °F 30.2 °F 47% 29.90 in 10.0 mi WNW 3.5 mph - N/A   Clear
9:53 PM 48.9 °F 27.0 °F 43% 29.94 in 10.0 mi NW 4.6 mph - N/A   Clear
10:53 PM 46.9 °F 26.1 °F 44% 29.97 in 10.0 mi NNW 10.4 mph - N/A   Clear
11:53 PM 43.0 °F 24.1 °F 47% 29.99 in 10.0 mi Calm Calm - N/A   Clear